Hourly Data Report for October 18, 2013

All times are specified in Local Standard Time (LST). Add 1 hour to adjust for Daylight Saving Time where and when it is observed.

CHARLOTTETOWN A
PRINCE EDWARD ISLAND

46°17'21.000" N
63°07'09.000" W
48.50 m
8300301
71706
YYG

Download Data

Hourly Data (October 2013)
Hourly Data Report for October 18, 2013
Temp Definition
°C
Dew Point Temp Definition
°C
Rel Hum Definition
%
Wind Dir Definition
10's deg

Wind Spd Definition
km/h
Visibility Definition
km
Stn Press Definition
kPa
Hmdx Definition


Wind Chill Definition


Weather Definition


TIME
00:00 Legend Double Dagger 12.1 11.5 96 25 15 24.1 100.01     LegendNANA
01:00 Legend Double Dagger 12.2 11.4 95 24 13 24.1 100.00     LegendNANA
02:00 Legend Double Dagger 11.8 11.2 96 25 12 24.1 100.01     Mainly Clear
03:00 Legend Double Dagger 11.5 11.0 97 24 13 24.1 99.97     LegendNANA
04:00 Legend Double Dagger 11.2 10.6 96 24 14 24.1 99.95     LegendNANA
05:00 Legend Double Dagger 10.6 10.0 96 25 10 24.1 99.98     Mainly Clear
06:00 Legend Double Dagger 10.1 9.7 97 26 7 24.1 100.00     LegendNANA
07:00 Legend Double Dagger 10.4 10.1 98 21 8 24.1 100.02     LegendNANA
08:00 Legend Double Dagger 12.3 11.2 93 24 16 24.1 100.07     Cloudy
09:00 Legend Double Dagger 12.6 11.5 93 21 9 24.1 99.94     LegendNANA
10:00 Legend Double Dagger 12.8 11.2 90 22 16 24.1 100.00     LegendNANA
11:00 Legend Double Dagger 12.6 11.2 91 22 14 24.1 99.99     Rain Showers
12:00 Legend Double Dagger 13.6 11.5 87 20 12 24.1 99.89     LegendNANA
13:00 Legend Double Dagger 14.0 11.5 85 16 11 24.1 99.77     LegendNANA
14:00 Legend Double Dagger 13.7 11.1 84 15 12 24.1 99.70     Mostly Cloudy
15:00 Legend Double Dagger 13.3 11.2 87 14 10 24.1 99.64     Rain Showers
16:00 Legend Double Dagger 12.9 11.8 93 17 9 9.7 99.61     Rain Showers,Fog
17:00 Legend Double Dagger 12.3 12.0 98 14 10 2.0 99.55     Rain Showers,Fog
18:00 Legend Double Dagger 12.5 12.2 98 13 14 2.4 99.46     Rain Showers,Drizzle,Fog
19:00 Legend Double Dagger 12.6 12.3 98 15 14 16.1 99.43     Drizzle
20:00 Legend Double Dagger 12.7 12.4 98 18 9 4.8 99.46     Drizzle,Fog
21:00 Legend Double Dagger 13.0 12.7 98 25 11 16.1 99.48     Drizzle
22:00 Legend Double Dagger 13.1 12.3 95 27 15 24.1 99.51     LegendNANA
23:00 Legend Double Dagger 11.5 10.9 96 30 21 16.1 99.60     Rain Showers

Notes on Data Quality.

Legend

  • E = Estimated
  • M = Missing
  • NA = Not Available
  • ‡ = Partner data that is not subject to review by the National Climate Archives
Date modified: